Date String (YYYY-MM-DD hh:mm:ss) UTC,Instrument flags,absolute air pressure of the measurement (hPa),sample flow rate (lpm),inlet stack bypass flow (lpm),air temperature of the measurement (°C),ambient temperature measured by the external sensor (°C),aerosol sample conditioner tube jacket temperature (°C),OPC LED temperature (°C),internal box temperature (°C),relative humidity of the measurement (%),span deviation,mass concentration of particles derived from Lorenz-Mie calculation of OPC scattering (μg/m³),mass concentration of particles derived from Lorenz-Mie calculation of OPC scattering (μg/m³),mass concentration of particles derived from Lorenz-Mie calculation of OPC scattering (μg/m³)
DateTimeUTC,F1_M11,P_M11,Q1_M11,Q2_M11,T1_M11,T2_M11,T3_M11,T4_M11,T5_M11,U1_M11,ZSPAN_M11,X0_M11,X2_M11,X1_M11
2023-09-23 10:00:00,SystemResetWarning,0829.1,5.00,000.00,028.2,026.7,000.0,036.7,029.7,13.9,0002.9,0009.18,0004.74,0004.08
2023-09-23 10:01:00,SystemResetWarning,0829.1,5.00,000.00,028.2,026.7,000.0,036.7,029.7,14.7,0002.8,0009.12,0004.74,0004.08
2023-09-23 10:02:00,SystemResetWarning,0829.1,5.01,000.00,028.1,026.7,000.0,036.7,029.7,14.9,0002.6,0008.65,0004.76,0004.08
2023-09-23 10:03:00,SystemResetWarning,0829.0,5.01,000.00,028.1,026.7,000.0,036.7,029.6,15.0,0002.3,0008.62,0004.75,0004.08
2023-09-23 10:04:00,SystemResetWarning,0828.9,4.99,000.00,028.1,026.6,000.0,036.7,029.6,13.9,0000.9,0009.11,0004.75,0004.08
2023-09-23 10:05:00,SystemResetWarning,0829.0,4.99,000.00,028.1,026.6,000.0,036.7,029.6,13.4,0001.4,0009.30,0004.73,0004.09
2023-09-23 10:06:00,SystemResetWarning,0829.0,5.01,000.00,028.1,026.6,000.0,036.7,029.6,13.2,0001.0,0009.38,0004.70,0004.09
2023-09-23 10:07:00,SystemResetWarning,0828.9,5.01,000.00,028.1,026.6,000.0,036.7,029.6,13.1,0000.5,0009.28,0004.69,0004.09
2023-09-23 10:08:00,SystemResetWarning,0828.8,4.99,000.00,028.1,026.6,000.0,036.7,029.6,12.6,0000.2,0009.26,0004.64,0004.09
2023-09-23 10:09:00,SystemResetWarning,0828.8,4.99,000.00,028.1,026.6,000.0,036.7,029.6,12.6,0000.7,0009.21,0004.61,0004.08
2023-09-23 10:10:00,SystemResetWarning,0828.9,5.00,000.00,028.1,026.6,000.0,036.7,029.6,12.6,0000.8,0009.00,0004.58,0004.07
2023-09-23 10:11:00,SystemResetWarning,0829.0,5.01,000.00,028.1,026.6,000.0,036.7,029.6,13.0,0000.7,0008.86,0004.59,0004.07
2023-09-23 10:12:00,SystemResetWarning,0829.0,5.01,000.00,028.1,026.6,000.0,036.6,029.6,13.0,0000.3,0009.03,0004.59,0004.06
2023-09-23 10:13:00,SystemResetWarning,0829.0,4.99,000.00,028.1,026.6,000.0,036.6,029.6,12.8,0000.5,0008.98,0004.58,0004.06
2023-09-23 10:14:00,SystemResetWarning,0828.9,4.99,000.00,028.1,026.5,000.0,036.6,029.6,12.9,0000.6,0009.04,0004.59,0004.05
2023-09-23 10:15:00,SystemResetWarning,0829.0,5.01,000.00,028.1,026.5,000.0,036.6,029.6,13.0,0000.5,0008.79,0004.59,0004.06
2023-09-23 10:16:00,SystemResetWarning,0829.0,5.01,000.00,028.0,026.5,000.0,036.6,029.5,13.8,0000.6,0008.62,0004.60,0004.04
2023-09-23 10:17:00,SystemResetWarning,0829.0,5.00,000.00,028.0,026.5,000.0,036.6,029.5,14.1,0000.5,0008.74,0004.60,0004.04
2023-09-23 10:18:00,SystemResetWarning,0829.0,5.00,000.00,028.0,026.5,000.0,036.6,029.5,14.0,0000.1,0009.13,0004.58,0004.05
2023-09-23 10:19:00,SystemResetWarning,0828.9,4.99,000.00,028.0,026.4,000.0,036.6,029.5,13.6,0000.5,0009.21,0004.61,0004.07
2023-09-23 10:20:00,SystemResetWarning,0829.1,5.00,000.00,028.0,026.4,000.0,036.6,029.5,14.3,0000.7,0009.22,0004.63,0004.09
2023-09-23 10:21:00,SystemResetWarning,0829.0,4.99,000.00,028.0,026.4,000.0,036.6,029.4,14.3,0000.6,0009.05,0004.66,0004.09
2023-09-23 10:22:00,SystemResetWarning,0828.9,5.00,000.00,027.9,026.4,000.0,036.5,029.4,13.2,0001.1,0009.00,0004.69,0004.10
2023-09-23 10:23:00,SystemResetWarning,0828.8,5.00,000.00,027.9,026.4,000.0,036.5,029.4,12.5,0001.7,0009.67,0004.67,0004.11
2023-09-23 10:24:00,SystemResetWarning,0828.7,5.01,000.00,027.9,026.4,000.0,036.5,029.4,12.4,0001.8,0009.76,0004.68,0004.12
2023-09-23 10:25:00,SystemResetWarning,0828.6,5.00,000.00,027.9,026.3,000.0,036.5,029.4,12.4,0002.0,0009.76,0004.69,0004.13
2023-09-23 10:26:00,SystemResetWarning,0828.7,5.00,000.00,027.9,026.4,000.0,036.5,029.4,12.5,0002.1,0009.71,0004.68,0004.13
2023-09-23 10:27:00,SystemResetWarning,0828.8,5.00,000.00,027.9,026.4,000.0,036.5,029.4,12.7,0002.2,0009.54,0004.65,0004.13
2023-09-23 10:28:00,SystemResetWarning,0828.8,4.99,000.00,027.9,026.3,000.0,036.5,029.4,12.6,0002.5,0009.43,0004.63,0004.13
2023-09-23 10:29:00,SystemResetWarning,0828.7,4.99,000.00,027.9,026.3,000.0,036.5,029.4,12.9,0002.8,0008.94,0004.62,0004.12
2023-09-23 10:30:00,SystemResetWarning,0828.7,5.01,000.00,027.9,026.3,000.0,036.4,029.4,12.6,0002.9,0008.74,0004.59,0004.12
2023-09-23 10:31:00,SystemResetWarning,0828.7,5.00,000.00,027.8,026.2,000.0,036.4,029.4,12.8,0002.9,0008.78,0004.59,0004.11
2023-09-23 10:32:00,SystemResetWarning,0828.7,5.00,000.00,027.8,026.2,000.0,036.4,029.3,12.6,0002.2,0009.32,0004.61,0004.12
2023-09-23 10:33:00,SystemResetWarning,0828.8,5.00,000.00,027.8,026.1,000.0,036.4,029.3,12.7,0000.0,0010.04,0004.63,0004.12
2023-09-23 10:34:00,SystemResetWarning,0828.8,4.99,000.00,027.8,026.0,000.0,036.4,029.3,13.1,0000.0,0010.00,0004.63,0004.12
2023-09-23 10:35:00,SystemResetWarning,0829.0,5.00,000.00,027.7,026.0,000.0,036.4,029.2,13.2,0000.0,0010.36,0004.61,0004.10
2023-09-23 10:36:00,SystemResetWarning,0828.9,5.00,000.00,027.7,026.0,000.0,036.4,029.2,13.1,0001.1,0010.85,0004.62,0004.09
2023-09-23 10:37:00,SystemResetWarning,0828.8,5.00,000.00,027.7,026.0,000.0,036.3,029.2,12.6,0001.4,0010.97,0004.65,0004.09
2023-09-23 10:38:00,SystemResetWarning,0828.8,5.00,000.00,027.7,026.1,000.0,036.3,029.2,12.7,0000.0,0010.96,0004.67,0004.11
2023-09-23 10:39:00,SystemResetWarning,0828.8,5.00,000.00,027.7,026.1,000.0,036.3,029.2,12.9,0000.0,0011.78,0004.71,0004.12
2023-09-23 10:40:00,SystemResetWarning,0828.8,5.01,000.00,027.7,026.1,000.0,036.3,029.2,12.8,0000.0,0011.78,0004.71,0004.13
2023-09-23 10:41:00,SystemResetWarning,0828.7,5.00,000.00,027.7,026.1,000.0,036.3,029.2,12.6,0000.0,0012.46,0004.72,0004.14
2023-09-23 10:42:00,SystemResetWarning,0828.9,5.00,000.00,027.7,026.1,000.0,036.3,029.2,12.7,0000.0,0012.41,0004.68,0004.14
2023-09-23 10:43:00,SystemResetWarning,0828.8,4.99,000.00,027.7,026.1,000.0,036.3,029.1,12.8,0000.0,0012.07,0004.66,0004.13
2023-09-23 10:44:00,SystemResetWarning,0828.8,4.99,000.00,027.7,026.1,000.0,036.3,029.1,13.0,0000.0,0011.23,0004.62,0004.12
2023-09-23 10:45:00,SystemResetWarning,0828.7,5.00,000.00,027.7,026.1,000.0,036.2,029.1,12.9,0000.2,0011.11,0004.64,0004.13
2023-09-23 10:46:00,SystemResetWarning,0828.6,5.01,000.00,027.6,026.1,000.0,036.2,029.1,12.7,0001.4,0010.53,0004.68,0004.16
2023-09-23 10:47:00,SystemResetWarning,0828.7,5.00,000.00,027.6,026.1,000.0,036.2,029.1,12.7,0000.0,0010.22,0004.69,0004.18
2023-09-23 10:48:00,SystemResetWarning,0828.8,5.00,000.00,027.6,026.1,000.0,036.2,029.1,12.9,0000.0,0010.44,0004.67,0004.17
2023-09-23 10:49:00,SystemResetWarning,0828.8,5.00,000.00,027.6,026.0,000.0,036.2,029.1,13.0,0000.0,0010.88,0004.66,0004.16
2023-09-23 10:50:00,SystemResetWarning,0828.8,5.00,000.00,027.6,026.0,000.0,036.2,029.1,13.0,0000.6,0010.22,0004.65,0004.17
2023-09-23 10:51:00,SystemResetWarning,0828.7,4.99,000.00,027.6,026.0,000.0,036.2,029.0,12.9,0000.3,0010.09,0004.66,0004.16
2023-09-23 10:52:00,SystemResetWarning,0828.6,5.00,000.00,027.5,026.0,000.0,036.2,029.0,12.7,0000.1,0009.45,0004.65,0004.16
2023-09-23 10:53:00,SystemResetWarning,0828.7,5.00,000.00,027.5,026.0,000.0,036.1,029.0,12.6,0000.6,0009.26,0004.62,0004.14
2023-09-23 10:54:00,SystemResetWarning,0828.6,5.00,000.00,027.5,026.0,000.0,036.1,029.0,12.8,0000.9,0009.10,0004.61,0004.13
2023-09-23 10:55:00,SystemResetWarning,0828.6,5.00,000.00,027.5,026.0,000.0,036.1,029.0,13.1,0001.5,0009.16,0004.61,0004.12
2023-09-23 10:56:00,SystemResetWarning,0828.6,5.00,000.00,027.5,026.0,000.0,036.1,029.0,13.3,0001.8,0008.93,0004.61,0004.12
2023-09-23 10:57:00,SystemResetWarning,0828.6,5.00,000.00,027.5,025.9,000.0,036.1,029.0,12.9,0001.5,0008.74,0004.60,0004.11
2023-09-23 10:58:00,SystemResetWarning,0828.6,5.00,000.00,027.4,025.8,000.0,036.1,029.0,12.8,0001.5,0009.27,0004.57,0004.10
2023-09-23 10:59:00,SystemResetWarning,0828.6,5.00,000.00,027.4,025.8,000.0,036.0,028.9,13.7,0001.8,0009.64,0004.59,0004.10
